Location: Apeadero de Los Molinos-Guadarrama
(40.7091°N, 4.0689°W)
Time: 11:32:45
(UTC+00:00)

Cosmos 1867 - Pass Details

Date: 14 May 2021
Orbit: 773 x 802 km, 65.0° (Epoch: 18 June)

Event Time Altitude Azimuth Distance (km) Brightness Sun altitude
Exits shadow 23:32:12 61° 310° (NW) 897 3.9 -29.7°
Drops below altitude 10° 23:37:32 10° 26° (NNE) 2,377 6.7 -29.9°
Sets 23:40:01 0° 30° (NNE) 3,314 7.5 -29.9°
